THORAD DELTA 1 DEB

Satellite information

Favourite Embed

Satellite Type and Status

DEBRISIN ORBIT

Key statistics

Satellite THORAD DELTA 1 DEB at a glance.

Uptime

18662

Days in orbit

Revolutions

≈ 13.0

Per day

Orbit

SSO

Sun Synchronous Orbit

Inclination

101.8

Latest

Satellite identification and parameters

Extended collection of information and parameters for THORAD DELTA 1 DEB.

Object identification

Identified? True

Debris? True

Object name: THORAD DELTA 1 DEB

International designator: 1974-089FA

Object number (NORAD): 18693

Object ID (CCSDS): 18693

Country: UNITED STATES OF AMERICA (US)

Current information (Y/N): Y

RCS size: SMALL

Orbital parameters

Period: 110.94 minutes

Inclination: 101.7511 deg

SMA: 7648.076 km

Apoapsis: 1407.992 km

Periapsis: 1131.889 km

RAAN: 284.9481 deg

Eccentricy: 0.0180505

Argument of periapsis: 125.5541 deg

Mean anomaly: 293.5418 deg

Mean motion: 12.97999412 rev/day

Mean motion (dot): 0.00000067 rev/day2

B* drag term: 0.00036967349 1/REarth

Two-line elements (TLE)

Creation date: Dec. 17, 2025, 2:25 a.m.

Reference frame: TEME

Reference center: EARTH

Epoch: Dec. 16, 2025, 6:40 p.m. UTC

TLE line 0: 0 THORAD DELTA 1 DEB

TLE line 1: 1 18693U 74089FA 25350.77844372 .00000067 00000-0 36967-3 0 9999

TLE line 2: 2 18693 101.7511 284.9481 0180505 125.5541 293.5418 12.97999412757568

Live tracking on map

Real-time ground track for satellite THORAD DELTA 1 DEB.

In-orbit conjunctions

A list of the most updated potential collisions computed for object THORAD DELTA 1 DEB.

Target Orbit TCA Probability of collision Miss distance Type
COSMOS 1566 LEO 2025-10-20 23:34:19 0.0002390905 104.0 (m) PAYLOAD

Associated space launch

Meteorological satellite using radiometric imaging

THORAD DELTA 1 DEB was lifted into orbit during the mission ‘Delta 2310 | NOAA 4’, on board a Delta 2310 space rocket.

The launch took place on Nov. 15, 1974, 5:11 p.m. from Space Launch Complex 2W.

For more information about the launch, click the button.

Launch to space Delta 2310 | NOAA 4
Delta 2310 | NOAA 4

Agency: N/A

Status: Launch Successful

Launch date: Nov. 15, 1974, 5:11 p.m. UTC

Rocket: Delta 2310

Launch pad: Space Launch Complex 2W

Location: Vandenberg SFB, CA, USA

...

Latest news about this satellite

There are no fresh news available about this satellite. Check back as we update our databases every day.


Newsletter sign-up

Weekly statistics, charts and insights to help you stay on top of the space industry.